Terminal Aerodrome Forecast
Issued by NWS Omaha/Valley, NE

Home | Current Version | Previous Version | Text Only | Print | Product List | Glossary Off
Versions: 1 2 3 4 5 6 7 8 9 10 11 12 13 14 15 16 17 18 19 20 21 22 23 24 25 26 27 28 29 30 31 32 33 34 35 36 37 38 39

000
FTUS43 KOAX 201128
TAFOFK
TAF
KOFK 201128Z 2012/2112 29004KT P6SM BKN150
      TEMPO 2013/2016 BKN025
     FM201800 VRB04KT P6SM BKN150
     FM210000 15006KT P6SM SCT035 SCT250=

USA.gov is the U.S. government's official web portal to all federal, state and local government web resources and services.